Regional Weather Roundup
Issued by NWS Cleveland, OH

Home | Current Version | Previous Version | Graphics & Text | Print | Product List | Glossary On
Versions: 1 2 3 4 5 6 7 8 9 10 11 12 13 14 15 16 17 18 19 20 21 22 23 24 25 26 27 28 29 30 31 32 33 34 35 36 37 38 39 40 41 42 43 44 45 46 47 48 49 50
000
ASUS41 KCLE 020302
RWRCLE
OHIO REGIONAL WEATHER ROUNDUP
NATIONAL WEATHER SERVICE CLEVELAND, OH
1100 PM EDT WED JUL 01 2015

NOTE: "FAIR" INDICATES FEW OR NO CLOUDS BELOW 12,000 FEET WITH NO
SIGNIFICANT WEATHER AND/OR OBSTRUCTIONS TO VISIBILITY.

OHZ001>008-015>018-024>027-034-035-043-044-020400-
   NORTHWEST OHIO

CITY           SKY/WX    TMP DP  RH WIND       PRES   REMARKS
DEFIANCE       MOCLDY    65  57  75 NW3       29.95R
FINDLAY        MOCLDY    67  59  75 CALM      29.93R
TOLEDO EXPRESS CLOUDY    64  58  80 NE5       29.94R
TOLEDO EXEC    CLOUDY    67  56  67 NE3       29.95R
LIMA           CLEAR     64  59  83 CALM      29.94R
$$

OHZ009>014-019>023-028>033-038-089-020400-
   NORTHEAST OHIO

CITY           SKY/WX    TMP DP  RH WIND       PRES   REMARKS
CLE-HOPKINS    MOCLDY    66  59  78 CALM      29.96R
CLE-LAKEFRONT  MOCLDY    69  60  73 NW7       29.93R
CUY CO. ARPT   MOCLDY    63  59  88 CALM      29.96R
LORAIN-ELYRIA  PTCLDY    63  61  93 CALM      29.95R
ASHTABULA      MOCLDY    60  59  96 CALM      29.96R
AKRON-CANTON   PTCLDY    63  56  78 N5        29.95R
WOOSTER        CLEAR     61  59  93 CALM      29.96R
MANSFIELD      FAIR      63  59  87 CALM      29.96R
YOUNGSTOWN     CLOUDY    64  58  80 CALM      29.95R
$$

OHZ042-051>053-060>062-070>072-077>081-020400-
  SOUTHWEST OHIO

CITY           SKY/WX    TMP DP  RH WIND       PRES   REMARKS
CINC-COVINGTON CLOUDY    70  65  84 CALM      29.94R
CINC-LUNKEN    MOCLDY    67  65  93 CALM      29.93R
HAMILTON       MOCLDY    67  65  93 CALM      29.94R
DAYTON         MOCLDY    70  61  73 CALM      29.95R
WRIGHT-PAT AFB CLEAR     69  61  74 NE2       29.93R
DAYTON GENERAL CLEAR     68  61  78 CALM      29.93R
WILMINGTON     CLEAR     67  61  81 CALM      29.94R
$$

OHZ036-037-039>041-045>050-054>059-063>069-073>076-082>088-020400-
  CENTRAL AND SOUTHEAST OHIO

CITY           SKY/WX    TMP DP  RH WIND       PRES   REMARKS
COLUMBUS       PTCLDY    68  59  73 CALM      29.93R
OSU AIRPORT    PTCLDY    65  58  78 N3        29.94R
BOLTON FIELD   NOT AVBL
RICKENBACK AFB NOT AVBL
NEWARK         CLEAR     63  60  90 CALM      29.94R
MARION         PTCLDY    65  61  87 CALM      29.95R
LANCASTER      PTCLDY    62  60  93 CALM      29.94R
ZANESVILLE     NOT AVBL
NEW PHILLY     PTCLDY    61  59  93 CALM      29.95R
$$


USA.gov is the U.S. government's official web portal to all federal, state and local government web resources and services.